This demonstration page uses our WeatherBlox Daily Observations layout. Learn more.

Left ArrowRight Arrow

Hourly Observations for February 5, 2016

Temp ( °F °C ) Dew Point ( °F °C ) Humidity (%) Winds ( mph kmh ) Pressure ( in mb ) Visibility ( mi km ) Precip ( " mm )
12:58 am 00:58 Clear 13 -10.8 11 -11.7 93 93 Calm 30.42 1030 7 11 0.00 0.00
1:58 am 01:58 Clear 14 -10.2 12 -11.1 93 93 Calm 30.40 1030 9 14 0.00 0.00
2:58 am 02:58 Clear 14 -9.8 13 -10.8 93 93 Calm 30.40 1030 9 14 0.00 0.00
3:58 am 03:58 Clear 15 -9.3 14 -10.2 93 93 Calm 30.40 1029 8 13 0.00 0.00
4:58 am 04:58 Clear 16 -9 14 -9.8 94 94 Calm 30.40 1030 7 11 0.00 0.00
5:58 am 05:58 Cloudy 18 -8 16 -8.7 95 95 Calm 30.40 1030 7 11 0.00 0.00
6:58 am 06:58 Cloudy 19 -7.1 19 -7.5 97 97 S 2 4 30.42 1030 9 14 0.00 0.00
7:58 am 07:58 Mostly Cloudy 20 -6.9 19 -7.3 97 97 Calm 30.43 1031 7 11 0.00 0.00
8:58 am 08:58 Cloudy 23 -5.2 22 -5.3 99 99 SSE 7 11 30.42 1030 10 16 0.00 0.00
9:58 am 09:58 Cloudy 26 -3.5 22 -5.7 85 85 S 7 11 30.42 1030 10 16 0.00 0.00
10:58 am 10:58 Partly Cloudy with Isolated Snow Showers 28 -2.3 22 -5.6 78 78 SSE 9 15 30.41 1030 6 10 0.00 0.00
11:03 am 11:03 Partly Cloudy with Isolated Snow Showers 28 -2 23 -5 80 80 SSE 6 9 30.42 1030 5 8 0.00 0.00
11:13 am 11:13 Cloudy with Light Snow 28 -2 23 -5 80 80 SSE 7 11 30.39 1029 3 5 0.00 0.00
11:33 am 11:33 Mostly Cloudy with Light Snow 28 -2 23 -5 80 80 SSE 8 13 30.39 1029 2 3 0.00 0.00
11:47 am 11:47 Cloudy with Light Snow 28 -2 23 -5 80 80 SSE 6 9 30.39 1029 2 3 0.00 0.00
11:58 am 11:58 Mostly Cloudy with Light Snow 29 -1.7 24 -4.6 81 81 SSE 10 17 30.38 1029 3 5 0.00 0.03
12:31 pm 12:31 Cloudy with Light Snow 28 -2 27 -3 93 93 SSE 13 20 30.36 1028 2 3 0.00 0.00
12:49 pm 12:49 Cloudy with Light Snow 28 -2 27 -3 93 93 SSE 10 17 30.36 1028 3 5 0.00 0.00
12:58 pm 12:58 Cloudy with Light Snow 29 -1.7 27 -2.9 92 92 SSE 10 17 30.35 1028 3 5 0.00 0.03
1:09 pm 13:09 Cloudy with Light Snow 28 -2 27 -3 93 93 SSE 10 17 30.33 1027 2 3 0.00 0.00
1:23 pm 13:23 Cloudy with Light Snow 28 -2 27 -3 93 93 SSE 14 22 30.33 1027 2 2 0.00 0.00
1:58 pm 13:58 Cloudy with Light Snow 29 -1.5 28 -2.5 93 93 S 9 15 30.32 1027 2 2 0.00 0.03
2:54 pm 14:54 Cloudy with Light Snow 30 -1.2 28 -2.2 93 93 SSE 10 17 30.30 1026 2 2 0.00 0.03
2:58 pm 14:58 Cloudy with Light Snow 30 -1.2 28 -2.2 93 93 S 9 15 30.30 1026 2 2 0.00 0.03
3:36 pm 15:36 Mostly Cloudy with Light Snow 30 -1 28 -2 93 93 S 7 11 30.30 1026 2 3 0.00 0.00
3:58 pm 15:58 Mostly Cloudy with Light Snow 32 0 28 -2 87 87 SSE 8 13 30.29 1026 3 5 0.00 0.03
4:58 pm 16:58 Cloudy with Mist and Fog 32 0 28 -2 87 87 S 5 7 30.29 1026 5 8 0.00 0.03
5:58 pm 17:58 Mostly Cloudy 32 0 30 -1 93 93 S 5 7 30.29 1026 10 16 0.00 0.00
6:49 pm 18:49 Cloudy 30 -1 28 -2 93 93 SSE 6 9 30.30 1026 10 16 0.00 0.00
6:58 pm 18:58 Cloudy 29 -1.6 29 -1.9 98 98 SE 5 7 30.30 1026 10 16 0.00 0.00
7:58 pm 19:58 Mostly Cloudy with Mist and Fog 28 -2.2 28 -2.3 99 99 SE 2 4 30.30 1026 3 5 0.00 0.00
8:51 pm 20:51 Partly Cloudy with Mist and Fog 27 -3 27 -3 100 100 E 3 6 30.30 1026 3 4 0.00 0.00
8:58 pm 20:58 Partly Cloudy with Mist and Fog 27 -2.8 27 -2.9 99 99 E 3 6 30.29 1026 2 3 0.00 0.00
9:02 pm 21:02 Mostly Clear with Mist and Fog 27 -3 27 -3 100 100 E 2 4 30.30 1026 2 3 0.00 0.00
9:09 pm 21:09 Mostly Clear with Mist and Fog 27 -3 27 -3 100 100 E 2 4 30.30 1026 2 2 0.00 0.00
9:10 pm 21:10 Mostly Clear with Mist and Fog 27 -3 25 -4 93 93 E 2 4 30.30 1026 4 6 0.00 0.00
9:37 pm 21:37 Partly Cloudy with Mist and Fog 21 -6 21 -6 100 100 ENE 1 2 30.33 1027 3 5 0.00 0.00
9:57 pm 21:57 Cloudy with Mist and Fog 21 -6 21 -6 100 100 Calm 30.33 1027 3 4 0.00 0.00
9:58 pm 21:58 Cloudy with Mist and Fog 21 -6 21 -6 100 100 Calm 30.30 1026 3 4 0.00 0.00
10:03 pm 22:03 Cloudy with Mist and Fog 21 -6 21 -6 100 100 Calm 30.33 1027 1 1 0.00 0.00
10:05 pm 22:05 Cloudy with Mist and Fog 23 -5 23 -5 100 100 Calm 30.33 1027 1 1 0.00 0.00
10:10 pm 22:10 Cloudy with Mist and Fog 23 -5 23 -5 100 100 Calm 30.33 1027 1 1 0.00 0.00
10:13 pm 22:13 Cloudy with Mist and Fog 23 -5 23 -5 100 100 Calm 30.33 1027 1 2 0.00 0.00
10:16 pm 22:16 Cloudy with Mist and Fog 23 -5 23 -5 100 100 Calm 30.33 1027 1 2 0.00 0.00
10:19 pm 22:19 Cloudy with Mist and Fog 23 -5 23 -5 100 100 Calm 30.33 1027 1 2 0.00 0.00
10:20 pm 22:20 Cloudy with Mist and Fog 23 -5 23 -5 100 100 Calm 30.33 1027 2 2 0.00 0.00
10:21 pm 22:21 Cloudy with Mist and Fog 23 -5 23 -5 100 100 Calm 30.33 1027 2 2 0.00 0.00
10:23 pm 22:23 Cloudy with Mist and Fog 23 -5 23 -5 100 100 Calm 30.33 1027 2 3 0.00 0.00
10:25 pm 22:25 Cloudy with Mist and Fog 23 -5 23 -5 100 100 Calm 30.33 1027 3 5 0.00 0.00
10:31 pm 22:31 Cloudy with Freezing Fog 23 -5 23 -5 100 100 S 1 2 30.33 1027 0 0 0.00 0.00
10:32 pm 22:32 Cloudy with Freezing Fog 23 -5 23 -5 100 100 S 1 2 30.33 1027 1 1 0.00 0.00
10:37 pm 22:37 Cloudy with Mist and Fog 25 -4 25 -4 100 100 Calm 30.33 1027 3 4 0.00 0.00
10:39 pm 22:39 Cloudy with Mist and Fog 25 -4 25 -4 100 100 SSE 2 4 30.33 1027 2 3 0.00 0.00
10:43 pm 22:43 Cloudy with Mist and Fog 25 -4 25 -4 100 100 Calm 30.33 1027 2 3 0.00 0.00
10:48 pm 22:48 Cloudy with Mist and Fog 25 -4 25 -4 100 100 SSE 2 4 30.33 1027 2 2 0.00 0.00
10:58 pm 22:58 Cloudy with Mist and Fog 24 -4.2 24 -4.4 99 99 Calm 30.29 1026 1 2 0.00 0.00
11:02 pm 23:02 Cloudy with Mist and Fog 25 -4 25 -4 100 100 Calm 30.33 1027 1 2 0.00 0.00
11:03 pm 23:03 Cloudy with Mist and Fog 25 -4 25 -4 100 100 Calm 30.33 1027 1 2 0.00 0.00
11:19 pm 23:19 Cloudy with Mist and Fog 25 -4 25 -4 100 100 WNW 1 2 30.33 1027 2 3 0.00 0.00
11:22 pm 23:22 Cloudy with Mist and Fog 25 -4 25 -4 100 100 VRB 1 2 30.33 1027 2 3 0.00 0.00
11:24 pm 23:24 Cloudy with Mist and Fog 25 -4 25 -4 100 100 SW 1 2 30.33 1027 2 3 0.00 0.00
11:32 pm 23:32 Cloudy with Mist and Fog 27 -3 27 -3 100 100 SW 2 4 30.30 1026 3 5 0.00 0.00
11:58 pm 23:58 Cloudy with Mist and Fog 28 -2.3 28 -2.4 99 99 WSW 1 2 30.30 1026 5 8 0.00 0.00

Powered by AerisWeather